Hourly Data Report for November 11, 2019

MIRAMICHI RCS
NEW BRUNSWICK
Current Station Operator: ECCC - MSC

47°00'34.000" N
65°27'54.000" W
33.00 m
8100989
71744
ACQ

Download Data

Hourly Data (November 2019)
Hourly Data Report for November 11, 2019
TIME
LST
Temp Definition
°C
Dew Point Definition
°C
Rel Hum Definition
%
Precip. Amount Definition
mm

Wind Dir Definition
10's deg

Wind Spd Definition
km/h
Visibility Definition
km
Stn Press Definition
kPa
Hmdx Definition


Wind Chill Definition


Weather Definition


00:00 2.7 0.8 87 0.0 23 13   100.68     LegendNANA
01:00 2.6 0.4 85 0.0 23 13   100.70     LegendNANA
02:00 2.6 -0.5 80 0.0 23 14   100.78     LegendNANA
03:00 2.1 -0.5 83 0.0 23 14   100.80     LegendNANA
04:00 2.3 -1.1 78 0.0 25 12   100.86     LegendNANA
05:00 2.1 -2.1 74 0.0 32 8   101.02     LegendNANA
06:00 0.6 -4.5 69 0.0 31 13   101.11     LegendNANA
07:00 -0.4 -7.8 58 0.0 32 11   101.26   -4 LegendNANA
08:00 -1.1 -12.4 42 0.0 31 16   101.39   -6 LegendNANA
09:00 -1.8 -11.7 47 0.0 31 12   101.53   -6 LegendNANA
10:00 -2.4 -12.8 45 0.0 31 17   101.64   -8 LegendNANA
11:00 -2.5 -12.6 46 0.0 30 13   101.65   -7 LegendNANA
12:00 -1.9 -11.7 47 0.0 27 13   101.74   -6 LegendNANA
13:00 -0.7 -13.0 39 0.0 30 14   101.73   -5 LegendNANA
14:00 -0.4 -14.3 34 0.0 31 13   101.80   -5 LegendNANA
15:00 -0.2 -14.3 34 0.0 29 11   101.86   -4 LegendNANA
16:00 -0.8 -14.3 35 0.0 34 7   101.93   -3 LegendNANA
17:00 -1.9 -13.8 40 0.0 33 5   101.96   -4 LegendNANA
18:00 -2.5 -13.3 43 0.0 36 3   102.04   -4 LegendNANA
19:00 -2.3 -12.4 46 0.0 5 2   102.13   -3 LegendNANA
20:00 -2.4 -12.7 45 0.0 2 7   102.12   -5 LegendNANA
21:00 -2.7 -13.0 45 0.0 2 6   102.17   -5 LegendNANA
22:00 -2.9 -12.9 46 0.0 3 8   102.14   -6 LegendNANA
23:00 -3.0 -11.5 52 0.0 5 5   102.10   -5 LegendNANA

Notes on Data Quality.

Legend

  • E = Estimated
  • M = Missing
  • NA = Not Available*
  • [empty] = Indicates an unobserved value
Date modified: